Regional Weather Roundup
Issued by NWS Grand Forks, ND

Home | Current Version | Previous Version | Text Only | Print | Product List | Glossary On
Versions: 1 2 3 4 5 6 7 8 9 10 11 12 13 14 15 16 17 18 19 20 21 22 23 24 25 26 27 28 29 30 31 32 33 34 35 36 37 38 39 40 41 42 43 44 45 46 47 48 49 50
000
ASUS43 KFGF 020231
RWRFGF
PRAIRIE TO PINES  WEATHER ROUNDUP
NATIONAL WEATHER SERVICE EASTERN NORTH DAKOTA/GRAND FORKS ND
800 PM CST SUN FEB 01 2015

 **SATELLITE DATA USED TO AUGMENT SKY COVER AT AUTOMATED STATIONS**
 *****  WEATHER ACROSS EASTERN NORTH DAKOTA  *****

CITY           SKY/WX    TMP DP  RH WIND       PRES   REMARKS
GRAND FORKS    CLEAR     -4 -11  72 S5        30.35F WCI -15
GRAND FRKS AFB CLEAR     -4 -14  64 W3        30.34F
GRAND FRKS NWS   N/A     -4 N/A N/A S5          N/A  WCI -15
DEVILS LAKE    PTCLDY    -4 -15  59 S6        30.24F WCI -16
FARGO          CLEAR     -2 -13  59 CALM      30.38F
WAHPETON ARPT  CLEAR      1  -9  60 N7        30.37F WCI -11
$$

 ***** WEATHER ACROSS CENTRAL AND WESTERN NORTH DAKOTA  *****

CITY           SKY/WX    TMP DP  RH WIND       PRES   REMARKS
BISMARCK       CLOUDY    -9 -16  71 S3        30.29F
MINOT          MOCLDY     1 -10  60 S10       30.19F WCI -15
JAMESTOWN      PTCLDY    -2 -12  62 SW3       30.29F
MINOT AFB      MOCLDY    -2  -8  77 S5        30.19F WCI -12
GARRISON         N/A     -5 -12  72 S7        30.21F WCI -19
WILLISTON      MOCLDY     2  -4  76 S5        30.15F WCI  -8
DICKINSON      PTCLDY    -4  -9  79 S10       30.12F WCI -21
HETTINGER      MOCLDY    -1  -5  82 SE6       30.17F WCI -13
$$

 *****  OTHER AIRPORT OBSERVATIONS IN OUR AREA  *****

CITY           SKY/WX    TMP DP  RH WIND       PRES   REMARKS
WALHALLA         N/A     -2 -15  55 SW3       30.28F
GRAFTON AIRPOR NOT AVBL
VALLEY CITY AR FAIR      -2  -9  71 SW6       30.30F WCI -14
CANDO          FAIR      -4 -11  71 S8        30.23F WCI -19
CAVALIER APRT  FAIR      -2  -9  71 S8        30.30F WCI -17
GWINNER        CLEAR      3  -9  55 CALM      30.35F
SHEYENNE NWR     N/A     -6 -14  66 CALM      29.95S
ROLLA          FAIR      -4 -15  59 SW12      30.17F WCI -22
 ***** THE ABOVE OBSERVATIONS ARE NON NWS ARE NOT QUALITY
       CONTROLLED AND MAY MIS-REPORT RAIN FOR SNOW...
$$

  *****  WEATHER ACROSS NORTHERN MINNESOTA  *****

CITY           SKY/WX    TMP DP  RH WIND       PRES   REMARKS
FLAG ISLAND    PTCLDY   -11 -18  70 SW9       30.26F WCI -29
WARROAD        PTCLDY   -11 -18  70 SW5       30.28F WCI -23
ROSEAU         PTCLDY    -8 -15  71 SW5       30.29F WCI -19
HALLOCK        MOCLDY    -9 -15  77 S7        30.31F WCI -24
THF RVR FALLS  PTCLDY    -8  -8 100 CALM      30.30F
BAUDETTE       MOCLDY   -14 -20  74 CALM      30.28F
WASKISH        PTCLDY   -15 -20  76 CALM      30.29F
CROOKSTON      PTCLDY    -6 -11  77 S5        30.35F WCI -17
STEPHEN NDAWN    N/A     -9 -15  77 S5          N/A  WCI -21
GREENBUSH NDAW   N/A     -9 -15  77 S5          N/A  WCI -21
$$
  *****  WEATHER ACROSS CENTRAL AND WEST MINNESOTA  *****

CITY           SKY/WX    TMP DP  RH WIND       PRES   REMARKS
FOSSTON        FAIR      -8 -15  71 CALM      30.31F
BEMIDJI        CLEAR     -8 -15  72 CALM      30.27F
PARK RAPIDS    CLEAR     -3 -13  62 NW7       30.28F WCI -16
ELBOW LAKE     FAIR       1  -8  67 NW7       30.32F WCI -12
WADENA         CLEAR      0 -11  60 NW3       30.28F
DETROIT LAKES  CLEAR     -2  -8  78 NW6       30.31F WCI -14
MOORHEAD       CLEAR     -2  -9  71 CALM      30.37F
FERGUS FALLS   FAIR       0 -11  60 N8        30.38F WCI -15
MORRIS MN      CLEAR      3  -8  60 NW13      30.32F WCI -14
STAPLES        FAIR       0 -11  60 N5        30.29F WCI -10
$$
  *****  WEATHER ELSEWHERE ACROSS MINNESOTA  *****

CITY           SKY/WX    TMP DP  RH WIND       PRES   REMARKS
DULUTH         CLEAR      0 -15  49 N9        30.22F WCI -15
INTRNTL FALLS  MOCLDY   -18 -22  82 CALM      30.28F
ELY            PTCLDY   -13 -20  70 CALM      30.24F
CLOQUET        FAIR       0 -15  50 N7        30.23F WCI -13
WHEATON        CLEAR      0  -9  65 NW6       30.38F WCI -12
BRAINERD       CLEAR      0 -11  59 NW8       30.29S WCI -14
HIBBING        CLEAR     -5 -18  53 NW3       30.25F
ALEXANDRIA     CLEAR      3  -8  60 N7        30.29S WCI  -9
SAINT CLOUD    CLEAR      6 -10  47 N8        30.28S WCI  -7
MINNEAPOLIS    CLEAR     11  -5  48 N14       30.26R WCI  -5
$$

  *****  WEATHER ACROSS SOUTH DAKOTA  *****

CITY           SKY/WX    TMP DP  RH WIND       PRES   REMARKS
SIOUX FALLS    CLEAR      4  -3  73 NW15      30.30R WCI -14
BROOKINGS      NOT AVBL
WATERTOWN      CLEAR     -3 -10  72 N5        30.29F WCI -13
HURON          PTCLDY    -4 -10  75 NW8       30.37F WCI -19
SISSETON         N/A     -1  -8  72 N7        30.35F WCI -14
ABERDEEN       CLEAR     -2 -10  69 NW8       30.37S WCI -17
MITCHELL       CLEAR     -2  -8  76 NW10      30.39S WCI -19
PIERRE         MOCLDY    -4 -12  68 E5        30.33F WCI -15
MOBRIDGE       MOCLDY    -1 -13  56 E7        30.28F WCI -14
RAPID CITY     CLEAR      4   1  88 S6        30.16F WCI  -7
$$

  *****  SOME WEATHER IN NEARBY STATES *****

CITY           SKY/WX    TMP DP  RH WIND       PRES   REMARKS
GLASGOW MT     PTCLDY     8   2  76 E13       30.02F WCI  -8
GREAT FALLS MT CLOUDY    31  24  75 S12       29.86F WCI  22
CHEYENNE WY    PTCLDY    20  12  71 SW12      30.06F WCI   8
SCOTTSBLUFF NE PTCLDY     8  32 100 E9        30.17F WCI  -5
OMAHA NE       MOCLDY     9   4  80 NW20      30.29R WCI -10
DES MOINES IA  LGT SNOW  14   8  77 N14G22    30.17R WCI  -1
DAVENPORT IA   SNOW      13   8  81 N22G32    29.99R VSB 1/2 WCI  -6
CHICAGO IL     SNOW      20  19  96 NE18G35   29.81R VSB 1/2 WCI   5
EAU CLAIRE WI  PTCLDY    10   0  63 N10       30.18S WCI  -4
LA CROSSE WI   MOCLDY    15   0  51 N10G20    30.15R WCI   2
$$

  *****  SOME NATIONAL WEATHER *****

CITY           SKY/WX    TMP DP  RH WIND       PRES   REMARKS
LA GUARDIA NY  FLURRIES  34  23  64 S7        30.09F
RALEIGH NC     CLOUDY    53  34  48 S16G22    29.94F
ATLANTA GA     LGT RAIN  56  53  90 S17G30    29.86F FOG
NEW ORLEANS LA PTCLDY    69  63  81 SW14G21   29.91R
OKLAHOMA CITY  FAIR      28  15  58 N24G38    30.25R WCI  14
ALBUQUERQUE NM CLEAR     43  20  39 N9        30.17R
SALT LAKE CITY MOCLDY    43  25  49 S3        30.15R
LOS ANGELES CA PTCLDY    61  56  83 W6        30.06S
BOISE ID       LGT RAIN  38  36  92 E7        30.14R
SEATTLE WA     CLOUDY    48  45  89 SW12      30.07R
$$

*** WEATHER ACROSS MANITOBA...SASKATCHEWAN AND ONTARIO ***
                ***ONTARIO***

CITY           SKY/WX    TMP DP  RH WIND       PRES   REMARKS
GERALDTON      CLEAR    -17 -22  76 W6        30.19F WCI -31
THUNDER BAY    CLEAR     -8 -18  59 W7        30.29F WCI -22
SIOUX LOOKOUT  CLEAR    -24 -29  76 S2        30.21F
TORONTO        LGT SNOW   9   3  78 NE15      29.97F VSB 3/4 WCI  -8
BIG TROUT LK   MOCLDY   -13 -20  70 W8        30.11F WCI -30
PICKLE LAKE    CLEAR    -13 -20  70 W12       30.14F WCI -33
DRYDEN         CLEAR    -11 -18  70 SW7       30.22F WCI -26
KENORA         CLEAR    -13 -20  70 SW6       30.23F WCI -27
$$
                *** MANITOBA***

CITY           SKY/WX    TMP DP  RH WIND       PRES   REMARKS
BRANDON        MOCLDY    -8 -15  71 SW8       30.21F WCI -23
DAUPHIN        CLOUDY     0 -11  60 SW16G25   30.13F WCI -21
ISLAND LAKE    CLOUDY    -8 -17  65 W6        30.12F WCI -21
PILOT MOUND      N/A    -11 -18  70 SW9         N/A  WCI -29
THE PAS        FLURRIES   0  -8  71 W6        30.07F WCI -12
THOMPSON       CRYSTALS -11 -20  64 W6        30.04F WCI -25
WINNIPEG       CLEAR     -8 -17  65 S12       30.30F WCI -27
LYNN LAKE      PTCLDY   -13 -18  77 W8        29.97F WCI -30
CHURCHILL      CRYSTALS -24 -29  76 S6        30.01F WCI -40
GILLAM         CLOUDY   -15 -22  70 SW8       30.04F WCI -32
$$
                ***SASKATCHEWAN***

CITY           SKY/WX    TMP DP  RH WIND       PRES   REMARKS
ESTEVAN        CLOUDY     5  -4  66 S15       30.11F WCI -13
KINDERSLEY     MOCLDY     0  -6  78 NE7       29.99F WCI -13
LLOYDMINSTER   CLOUDY     3  -2  78 N10       30.02R WCI -12
PRINCE ALBERT  FLURRIES   5   0  78 W5        30.06F WCI  -4
REGINA         PTCLDY     3   0  85 SE10      30.04F WCI -12
YORKTON        CLEAR      0  -8  71 S7        30.08F WCI -13
N. BATTLEFORD  MOCLDY     3   0  85 NW2       30.07S
LA RONGE       CLEAR    -18 -22  83 W7        30.07S WCI -35
SASKATOON      MOCLDY     0  -4  85 W5        30.05F WCI -10
SWIFT CURRENT  PTCLDY     7   1  78 S17       29.91F WCI -12
$$
NOTE: THESE ARE AUTOMATED STATIONS WITH LIMITED QUALITY CONTROL
      "FAIR" INDICATES FEW OR NO CLOUDS BELOW 12,000 FEET WITH NO
      SIGNIFICANT WEATHER AND/OR OBSTRUCTIONS TO VISIBILITY.
      SKY/WX - SKY CONDITION AND SIGNIFICANT WEATHER.
      TMP - AIR TEMPERATURE.    DP   - DEWPOINT TEMPERATURE.
      RH  - RELATIVE HUMIDITY.  PRES - PRESSURE.
      HX  - HEAT INDEX.         WCI  - WIND CHILL INDEX.
$



USA.gov is the U.S. government's official web portal to all federal, state and local government web resources and services.